Time,TemperatureF,DewpointF,PressureIn,WindDirection,WindDirectionDegrees,WindSpeedMPH,WindSpeedGustMPH,Humidity,HourlyPrecipIn,Conditions,Clouds,dailyrainin,SolarRadiationWatts/m^2,SoftwareType,DateUTC
2013-01-18 00:03:00,36.0,29.0,-100.00,WNW,299,3.0,5.0,75,0.00,,,0.00,0.000000,,2013-01-18 00:03:00,
2013-01-18 00:12:00,36.0,29.0,-100.00,WNW,299,3.0,5.0,75,0.00,,,0.00,0.000000,,2013-01-18 00:12:00,
2013-01-18 00:13:00,36.0,28.0,-100.00,NW,313,2.0,5.0,71,0.00,,,0.00,0.000000,,2013-01-18 00:13:00,
2013-01-18 00:43:00,36.0,28.0,-100.00,NW,313,2.0,5.0,71,0.00,,,0.00,0.000000,,2013-01-18 00:43:00,
2013-01-18 00:53:00,36.0,28.0,-100.00,NW,313,2.0,5.0,71,0.00,,,0.00,0.000000,,2013-01-18 00:53:00,
2013-01-18 01:03:00,36.0,28.0,-100.00,NW,313,2.0,5.0,71,0.00,,,0.00,0.000000,,2013-01-18 01:03:00,
2013-01-18 01:33:00,36.0,28.0,-100.00,WNW,299,3.0,4.0,71,0.00,,,0.00,0.000000,,2013-01-18 01:33:00,
2013-01-18 01:43:00,36.0,28.0,-100.00,WNW,299,3.0,4.0,71,0.00,,,0.00,0.000000,,2013-01-18 01:43:00,
2013-01-18 01:53:00,36.0,28.0,-100.00,WNW,299,3.0,4.0,71,0.00,,,0.00,0.000000,,2013-01-18 01:53:00,
2013-01-18 02:03:00,36.0,28.0,-100.00,WNW,299,3.0,4.0,71,0.00,,,0.00,0.000000,,2013-01-18 02:03:00,
2013-01-18 02:12:00,36.0,28.0,-100.00,WNW,299,3.0,4.0,71,0.00,,,0.00,0.000000,,2013-01-18 02:12:00,
2013-01-18 02:43:00,36.0,28.0,-100.00,WNW,303,2.0,5.0,73,0.00,,,0.00,0.000000,,2013-01-18 02:43:00,
2013-01-18 02:53:00,36.0,28.0,-100.00,WNW,303,2.0,5.0,73,0.00,,,0.00,0.000000,,2013-01-18 02:53:00,
2013-01-18 03:03:00,36.0,28.0,-100.00,WNW,303,2.0,5.0,73,0.00,,,0.00,0.000000,,2013-01-18 03:03:00,
2013-01-18 03:12:00,36.0,28.0,-100.00,WNW,303,2.0,5.0,73,0.00,,,0.00,0.000000,,2013-01-18 03:12:00,
2013-01-18 03:33:00,35.0,27.0,-100.00,NNW,341,3.0,5.0,71,0.00,,,0.00,0.000000,,2013-01-18 03:33:00,
2013-01-18 03:43:00,35.0,27.0,-100.00,NNW,341,3.0,5.0,71,0.00,,,0.00,0.000000,,2013-01-18 03:43:00,
2013-01-18 03:53:00,35.0,27.0,-100.00,NNW,341,3.0,5.0,71,0.00,,,0.00,0.000000,,2013-01-18 03:53:00,
2013-01-18 04:02:00,35.0,27.0,-100.00,NNW,341,3.0,5.0,71,0.00,,,0.00,0.000000,,2013-01-18 04:02:00,
2013-01-18 04:12:00,35.0,27.0,-100.00,NNW,341,3.0,5.0,71,0.00,,,0.00,0.000000,,2013-01-18 04:12:00,
2013-01-18 04:33:00,36.0,27.0,-100.00,NW,307,5.0,9.0,69,0.00,,,0.00,0.000000,,2013-01-18 04:33:00,
2013-01-18 04:43:00,36.0,27.0,-100.00,NW,307,5.0,9.0,69,0.00,,,0.00,0.000000,,2013-01-18 04:43:00,
2013-01-18 04:53:00,36.0,27.0,-100.00,NW,307,5.0,9.0,69,0.00,,,0.00,0.000000,,2013-01-18 04:53:00,
2013-01-18 05:04:00,36.0,27.0,-100.00,NW,307,5.0,9.0,69,0.00,,,0.00,0.000000,,2013-01-18 05:04:00,
2013-01-18 05:12:00,36.0,27.0,-100.00,NW,307,5.0,9.0,69,0.00,,,0.00,0.000000,,2013-01-18 05:12:00,
2013-01-18 05:33:00,36.0,25.0,-100.00,WNW,297,7.0,15.0,63,0.00,,,0.00,0.000000,,2013-01-18 05:33:00,
2013-01-18 05:43:00,36.0,25.0,-100.00,WNW,297,7.0,15.0,63,0.00,,,0.00,0.000000,,2013-01-18 05:43:00,
2013-01-18 05:53:00,36.0,25.0,-100.00,WNW,297,7.0,15.0,63,0.00,,,0.00,0.000000,,2013-01-18 05:53:00,
2013-01-18 06:02:00,36.0,25.0,-100.00,WNW,297,7.0,15.0,63,0.00,,,0.00,0.000000,,2013-01-18 06:02:00,
2013-01-18 06:12:00,36.0,25.0,-100.00,WNW,297,7.0,15.0,63,0.00,,,0.00,0.000000,,2013-01-18 06:12:00,
2013-01-18 06:33:00,37.0,24.0,-100.00,WNW,303,7.0,15.0,58,0.00,,,0.00,0.000000,,2013-01-18 06:33:00,
2013-01-18 06:43:00,37.0,24.0,-100.00,WNW,303,7.0,15.0,58,0.00,,,0.00,0.000000,,2013-01-18 06:43:00,
2013-01-18 06:53:00,37.0,24.0,-100.00,WNW,303,7.0,15.0,58,0.00,,,0.00,0.000000,,2013-01-18 06:53:00,
2013-01-18 07:02:00,37.0,24.0,-100.00,WNW,303,7.0,15.0,58,0.00,,,0.00,0.000000,,2013-01-18 07:02:00,
2013-01-18 07:12:00,37.0,24.0,-100.00,WNW,303,7.0,15.0,58,0.00,,,0.00,0.000000,,2013-01-18 07:12:00,
2013-01-18 07:33:00,36.0,22.0,-100.00,WNW,290,9.0,17.0,57,0.00,,,0.00,0.000000,,2013-01-18 07:33:00,
2013-01-18 07:42:00,36.0,22.0,-100.00,WNW,290,9.0,17.0,57,0.00,,,0.00,0.000000,,2013-01-18 07:42:00,
2013-01-18 07:52:00,36.0,22.0,-100.00,WNW,290,9.0,17.0,57,0.00,,,0.00,0.000000,,2013-01-18 07:52:00,
2013-01-18 08:02:00,36.0,22.0,-100.00,WNW,290,9.0,17.0,57,0.00,,,0.00,0.000000,,2013-01-18 08:02:00,
2013-01-18 08:12:00,36.0,22.0,-100.00,WNW,290,9.0,17.0,57,0.00,,,0.00,0.000000,,2013-01-18 08:12:00,
2013-01-18 08:33:00,36.0,21.0,-100.00,WNW,286,10.0,18.0,55,0.00,,,0.00,0.000000,,2013-01-18 08:33:00,
2013-01-18 08:43:00,36.0,21.0,-100.00,WNW,286,10.0,18.0,55,0.00,,,0.00,0.000000,,2013-01-18 08:43:00,
2013-01-18 08:53:00,36.0,21.0,-100.00,WNW,286,10.0,18.0,55,0.00,,,0.00,0.000000,,2013-01-18 08:53:00,
2013-01-18 09:03:00,36.0,21.0,-100.00,WNW,286,10.0,18.0,55,0.00,,,0.00,0.000000,,2013-01-18 09:03:00,
2013-01-18 09:12:00,36.0,21.0,-100.00,WNW,286,10.0,18.0,55,0.00,,,0.00,0.000000,,2013-01-18 09:12:00,
2013-01-18 09:33:00,36.0,19.0,-100.00,NW,313,10.0,24.0,49,0.00,,,0.00,0.000000,,2013-01-18 09:33:00,
2013-01-18 09:43:00,36.0,19.0,-100.00,NW,313,10.0,24.0,49,0.00,,,0.00,0.000000,,2013-01-18 09:43:00,
2013-01-18 09:53:00,36.0,19.0,-100.00,NW,313,10.0,24.0,49,0.00,,,0.00,0.000000,,2013-01-18 09:53:00,
2013-01-18 10:03:00,36.0,19.0,-100.00,NW,313,10.0,24.0,49,0.00,,,0.00,0.000000,,2013-01-18 10:03:00,
2013-01-18 10:12:00,36.0,19.0,-100.00,NW,313,10.0,24.0,49,0.00,,,0.00,0.000000,,2013-01-18 10:12:00,
2013-01-18 10:33:00,34.0,16.0,-100.00,NW,313,11.0,24.0,48,0.00,,,0.00,0.000000,,2013-01-18 10:33:00,
2013-01-18 10:43:00,34.0,16.0,-100.00,NW,313,11.0,24.0,48,0.00,,,0.00,0.000000,,2013-01-18 10:43:00,
2013-01-18 10:53:00,34.0,16.0,-100.00,NW,313,11.0,24.0,48,0.00,,,0.00,0.000000,,2013-01-18 10:53:00,
2013-01-18 11:03:00,34.0,16.0,-100.00,NW,313,11.0,24.0,48,0.00,,,0.00,0.000000,,2013-01-18 11:03:00,
2013-01-18 11:12:00,34.0,16.0,-100.00,NW,313,11.0,24.0,48,0.00,,,0.00,0.000000,,2013-01-18 11:12:00,
2013-01-18 11:33:00,32.0,14.0,-100.00,NW,307,12.0,24.0,47,0.00,,,0.00,0.000000,,2013-01-18 11:33:00,
2013-01-18 11:43:00,32.0,14.0,-100.00,NW,307,12.0,24.0,47,0.00,,,0.00,0.000000,,2013-01-18 11:43:00,
2013-01-18 11:53:00,32.0,14.0,-100.00,NW,307,12.0,24.0,47,0.00,,,0.00,0.000000,,2013-01-18 11:53:00,
2013-01-18 12:03:00,32.0,14.0,-100.00,NW,307,12.0,24.0,47,0.00,,,0.00,0.000000,,2013-01-18 12:03:00,
2013-01-18 12:12:00,32.0,14.0,-100.00,NW,307,12.0,24.0,47,0.00,,,0.00,0.000000,,2013-01-18 12:12:00,
2013-01-18 12:33:00,31.0,13.0,-100.00,NW,317,10.0,22.0,47,0.00,,,0.00,0.000000,,2013-01-18 12:33:00,
2013-01-18 12:43:00,31.0,13.0,-100.00,NW,317,10.0,22.0,47,0.00,,,0.00,0.000000,,2013-01-18 12:43:00,
2013-01-18 12:53:00,31.0,13.0,-100.00,NW,317,10.0,22.0,47,0.00,,,0.00,0.000000,,2013-01-18 12:53:00,
2013-01-18 13:03:00,31.0,13.0,-100.00,NW,317,10.0,22.0,47,0.00,,,0.00,0.000000,,2013-01-18 13:03:00,
2013-01-18 13:12:00,31.0,13.0,-100.00,NW,317,10.0,22.0,47,0.00,,,0.00,0.000000,,2013-01-18 13:12:00,
2013-01-18 13:33:00,30.0,15.0,-100.00,NNW,333,7.0,20.0,52,0.00,,,0.00,23.000000,,2013-01-18 13:33:00,
2013-01-18 13:43:00,30.0,15.0,-100.00,NNW,333,7.0,20.0,52,0.00,,,0.00,23.000000,,2013-01-18 13:43:00,
2013-01-18 13:53:00,30.0,15.0,-100.00,NNW,333,7.0,20.0,52,0.00,,,0.00,23.000000,,2013-01-18 13:53:00,
2013-01-18 14:03:00,30.0,15.0,-100.00,NNW,333,7.0,20.0,52,0.00,,,0.00,23.000000,,2013-01-18 14:03:00,
2013-01-18 14:12:00,30.0,15.0,-100.00,NNW,333,7.0,20.0,52,0.00,,,0.00,23.000000,,2013-01-18 14:12:00,
2013-01-18 14:13:00,29.0,12.0,-100.00,NNW,347,9.0,18.0,49,0.00,,,0.00,165.000000,,2013-01-18 14:13:00,
2013-01-18 14:43:00,29.0,12.0,-100.00,NNW,347,9.0,18.0,49,0.00,,,0.00,165.000000,,2013-01-18 14:43:00,
2013-01-18 14:53:00,29.0,12.0,-100.00,NNW,347,9.0,18.0,49,0.00,,,0.00,165.000000,,2013-01-18 14:53:00,
2013-01-18 15:03:00,29.0,12.0,-100.00,NNW,347,9.0,18.0,49,0.00,,,0.00,165.000000,,2013-01-18 15:03:00,
2013-01-18 15:13:00,30.0,12.0,-100.00,NNW,341,9.0,16.0,46,0.00,,,0.00,292.000000,,2013-01-18 15:13:00,
2013-01-18 15:34:00,30.0,12.0,-100.00,NNW,341,9.0,16.0,46,0.00,,,0.00,292.000000,,2013-01-18 15:34:00,
2013-01-18 15:43:00,30.0,12.0,-100.00,NNW,341,9.0,16.0,46,0.00,,,0.00,292.000000,,2013-01-18 15:43:00,
2013-01-18 15:54:00,30.0,12.0,-100.00,NNW,341,9.0,16.0,46,0.00,,,0.00,292.000000,,2013-01-18 15:54:00,
2013-01-18 16:03:00,30.0,12.0,-100.00,NNW,341,9.0,16.0,46,0.00,,,0.00,292.000000,,2013-01-18 16:03:00,
2013-01-18 16:13:00,31.0,12.0,-100.00,NNW,342,7.0,15.0,44,0.00,,,0.00,397.000000,,2013-01-18 16:13:00,
2013-01-18 16:33:00,31.0,12.0,-100.00,NNW,342,7.0,15.0,44,0.00,,,0.00,397.000000,,2013-01-18 16:33:00,
2013-01-18 16:43:00,31.0,12.0,-100.00,NNW,342,7.0,15.0,44,0.00,,,0.00,397.000000,,2013-01-18 16:43:00,
2013-01-18 16:53:00,31.0,12.0,-100.00,NNW,342,7.0,15.0,44,0.00,,,0.00,397.000000,,2013-01-18 16:53:00,
2013-01-18 17:03:00,31.0,12.0,-100.00,NNW,342,7.0,15.0,44,0.00,,,0.00,397.000000,,2013-01-18 17:03:00,
2013-01-18 17:13:00,33.0,12.0,-100.00,NNW,345,5.0,12.0,41,0.00,,,0.00,455.000000,,2013-01-18 17:13:00,
2013-01-18 17:34:00,33.0,12.0,-100.00,NNW,345,5.0,12.0,41,0.00,,,0.00,455.000000,,2013-01-18 17:34:00,
2013-01-18 17:43:00,33.0,12.0,-100.00,NNW,345,5.0,12.0,41,0.00,,,0.00,455.000000,,2013-01-18 17:43:00,
2013-01-18 17:53:00,33.0,12.0,-100.00,NNW,345,5.0,12.0,41,0.00,,,0.00,455.000000,,2013-01-18 17:53:00,
2013-01-18 18:03:00,33.0,12.0,-100.00,NNW,345,5.0,12.0,41,0.00,,,0.00,455.000000,,2013-01-18 18:03:00,
2013-01-18 18:13:00,34.0,10.0,-100.00,NW,318,6.0,13.0,36,0.00,,,0.00,476.000000,,2013-01-18 18:13:00,
2013-01-18 18:34:00,34.0,10.0,-100.00,NW,318,6.0,13.0,36,0.00,,,0.00,476.000000,,2013-01-18 18:34:00,
2013-01-18 18:43:00,34.0,10.0,-100.00,NW,318,6.0,13.0,36,0.00,,,0.00,476.000000,,2013-01-18 18:43:00,
2013-01-18 18:53:00,34.0,10.0,-100.00,NW,318,6.0,13.0,36,0.00,,,0.00,476.000000,,2013-01-18 18:53:00,
2013-01-18 19:03:00,34.0,10.0,-100.00,NW,318,6.0,13.0,36,0.00,,,0.00,476.000000,,2013-01-18 19:03:00,
2013-01-18 19:13:00,37.0,11.0,-100.00,WNW,290,4.0,14.0,34,0.00,,,0.00,429.000000,,2013-01-18 19:13:00,
2013-01-18 19:33:00,37.0,11.0,-100.00,WNW,290,4.0,14.0,34,0.00,,,0.00,429.000000,,2013-01-18 19:33:00,
2013-01-18 19:43:00,37.0,11.0,-100.00,WNW,290,4.0,14.0,34,0.00,,,0.00,429.000000,,2013-01-18 19:43:00,
2013-01-18 19:53:00,37.0,11.0,-100.00,WNW,290,4.0,14.0,34,0.00,,,0.00,429.000000,,2013-01-18 19:53:00,
2013-01-18 20:03:00,37.0,11.0,-100.00,WNW,290,4.0,14.0,34,0.00,,,0.00,429.000000,,2013-01-18 20:03:00,
2013-01-18 20:13:00,38.0,8.0,-100.00,NW,314,4.0,12.0,28,0.00,,,0.00,335.000000,,2013-01-18 20:13:00,
2013-01-18 20:33:00,38.0,8.0,-100.00,NW,314,4.0,12.0,28,0.00,,,0.00,335.000000,,2013-01-18 20:33:00,
2013-01-18 20:43:00,38.0,8.0,-100.00,NW,314,4.0,12.0,28,0.00,,,0.00,335.000000,,2013-01-18 20:43:00,
2013-01-18 20:53:00,38.0,8.0,-100.00,NW,314,4.0,12.0,28,0.00,,,0.00,335.000000,,2013-01-18 20:53:00,
2013-01-18 21:03:00,38.0,8.0,-100.00,NW,314,4.0,12.0,28,0.00,,,0.00,335.000000,,2013-01-18 21:03:00,
2013-01-18 21:43:00,37.0,6.0,-100.00,SSW,202,4.0,9.0,27,0.00,,,0.00,205.000000,,2013-01-18 21:43:00,
2013-01-18 21:53:00,37.0,6.0,-100.00,SSW,202,4.0,9.0,27,0.00,,,0.00,205.000000,,2013-01-18 21:53:00,
2013-01-18 22:03:00,37.0,6.0,-100.00,SSW,202,4.0,9.0,27,0.00,,,0.00,205.000000,,2013-01-18 22:03:00,
2013-01-18 22:12:00,37.0,6.0,-100.00,SSW,202,4.0,9.0,27,0.00,,,0.00,205.000000,,2013-01-18 22:12:00,
2013-01-18 22:43:00,34.0,7.0,-100.00,South,169,3.0,9.0,31,0.00,,,0.00,46.000000,,2013-01-18 22:43:00,
2013-01-18 22:53:00,34.0,7.0,-100.00,South,169,3.0,9.0,31,0.00,,,0.00,46.000000,,2013-01-18 22:53:00,
2013-01-18 23:03:00,34.0,7.0,-100.00,South,169,3.0,9.0,31,0.00,,,0.00,46.000000,,2013-01-18 23:03:00,
2013-01-18 23:12:00,34.0,7.0,-100.00,South,169,3.0,9.0,31,0.00,,,0.00,46.000000,,2013-01-18 23:12:00,
2013-01-18 23:13:00,31.0,8.0,-100.00,SE,140,3.0,5.0,38,0.00,,,0.00,1.000000,,2013-01-18 23:13:00,
2013-01-18 23:33:00,31.0,8.0,-100.00,SE,140,3.0,5.0,38,0.00,,,0.00,1.000000,,2013-01-18 23:33:00,
2013-01-18 23:43:00,31.0,8.0,-100.00,SE,140,3.0,5.0,38,0.00,,,0.00,1.000000,,2013-01-18 23:43:00,
2013-01-18 23:53:00,31.0,8.0,-100.00,SE,140,3.0,5.0,38,0.00,,,0.00,1.000000,,2013-01-18 23:53:00,